EW8780 Weather Reports


Display with metric or nautical units.
time (UTC)temp
F
wind
direction
speed
MPH
gust
MPH
rain 1hr
in
rain 24hr
in
rain mn
in
humidity
%
barometer
mb
20260508174514 55 161 0.0 3.0 0.00 0.02 0.02 90 1019.1
20260508173013 55 196 0.0 2.0 0.00 0.02 0.02 91 1019.0
20260508171517 54 209 0.0 3.0 0.00 0.02 0.02 92 1018.9
20260508170010 54 207 0.0 1.0 0.00 0.02 0.02 93 1018.8
20260508164507 54 207 0.0 4.0 0.00 0.02 0.02 93 1018.7
20260508163012 54 214 1.0 4.0 0.00 0.02 0.02 94 1018.6
20260508161505 54 220 0.0 1.0 0.00 0.02 0.02 95 1018.5
20260508160003 53 219 0.0 1.0 0.00 0.02 0.02 95 1018.5
20260508154502 53 219 0.0 2.0 0.00 0.02 0.02 96 1018.7
20260508153100 53 219 0.0 0.0 0.00 0.02 0.02 96 1018.5
20260508151556 52 219 0.0 0.0 0.00 0.02 0.02 96 1018.4
20260508150052 52 219 0.0 0.0 0.00 0.02 0.02 96 1018.4
20260508144549 52 219 0.0 1.0 0.00 0.02 0.02 96 1018.4
20260508143042 52 219 0.0 1.0 0.00 0.02 0.02 96 1018.3
20260508141607 52 219 0.0 0.0 0.00 0.02 0.02 96 1017.9
20260508140040 52 216 0.0 0.0 0.00 0.02 0.02 96 1017.6
20260508134552 51 216 0.0 0.0 0.00 0.02 0.02 96 1017.9
20260508133037 51 216 0.0 0.0 0.00 0.02 0.02 96 1017.8
20260508131536 51 216 0.0 0.0 0.00 0.02 0.02 96 1017.7
20260508130036 51 216 0.0 0.0 0.00 0.02 0.02 96 1017.8
20260508124534 51 216 0.0 0.0 0.00 0.02 0.02 95 1017.9
20260508123044 52 216 0.0 0.0 0.00 0.02 0.02 96 1017.7
20260508121534 51 216 0.0 2.0 0.00 0.02 0.02 95 1017.8
20260508120031 51 216 0.0 1.0 0.01 0.02 0.02 95 1017.8
20260508114534 51 216 0.0 0.0 0.01 0.02 0.02 95 1017.5
20260508113045 51 216 0.0 0.0 0.01 0.02 0.02 95 1017.5
20260508111528 52 216 0.0 0.0 0.01 0.02 0.02 95 1017.6
20260508110027 51 216 0.0 0.0 0.00 0.01 0.01 95 1017.7
20260508104526 51 216 0.0 1.0 0.01 0.01 0.01 95 1017.7
20260508103027 51 216 0.0 2.0 0.01 0.01 0.01 95 1017.6
20260508101528 52 217 0.0 1.0 0.01 0.01 0.01 95 1017.5
20260508100021 52 216 0.0 2.0 0.01 0.01 0.01 95 1017.4
20260508094519 52 219 0.0 2.0 0.00 0.00 0.00 95 1017.4
20260508093019 52 219 0.0 1.0 0.00 0.00 0.00 95 1017.4
20260508091531 52 219 0.0 1.0 0.00 0.00 0.00 94 1017.2
20260508090027 52 219 0.0 0.0 0.00 0.00 0.00 94 1017.1
20260508084515 52 219 0.0 0.0 0.00 0.00 0.00 94 1017.3
20260508083013 52 219 0.0 0.0 0.00 0.00 0.00 94 1017.2
20260508081513 52 219 0.0 0.0 0.00 0.00 0.00 94 1017.1
20260508080013 52 219 0.0 0.0 0.00 0.00 0.00 94 1017.1
20260508074509 52 219 0.0 1.0 0.00 0.00 0.00 94 1017.1
20260508073008 52 219 0.0 0.0 0.00 0.00 0.00 94 1016.8
20260508071515 52 219 0.0 0.0 0.00 0.00 0.00 94 1016.7
20260508070003 53 219 0.0 0.0 0.00 0.00 0.00 94 1016.7
20260508064502 53 219 0.0 1.0 0.00 0.00 0.00 94 1016.5
20260508063002 53 219 0.0 2.0 0.00 0.00 0.00 93 1016.4
20260508061501 53 219 0.0 0.0 0.00 0.00 0.00 93 1016.3
20260508060105 53 219 0.0 0.0 0.00 0.00 0.00 93 1016.3
20260508054600 53 219 0.0 0.0 0.00 0.00 0.00 93 1016.4
20260508053059 53 219 0.0 0.0 0.00 0.00 0.00 93 1016.4
20260508051559 53 219 0.0 0.0 0.00 0.00 0.00 93 1016.5
20260508050100 53 219 0.0 0.0 0.00 0.00 0.00 92 1016.5
20260508044600 53 219 0.0 0.0 0.00 0.00 0.00 92 1016.5
20260508043108 53 219 0.0 0.0 0.00 0.00 0.00 92 1016.5
20260508041556 53 219 0.0 0.0 0.00 0.00 0.00 91 1016.5
20260508040057 53 219 0.0 1.0 0.00 0.00 0.00 91 1016.3
20260508034555 53 219 0.0 0.0 0.00 0.00 0.00 90 1016.1
20260508033055 53 219 0.0 0.0 0.00 0.00 0.00 90 1016.1
20260508031555 54 219 0.0 2.0 0.00 0.00 0.00 89 1016.1
20260508030054 54 219 0.0 2.0 0.00 0.00 0.00 89 1015.8
20260508024558 54 203 0.0 2.0 0.00 0.00 0.00 89 1015.6
20260508023053 54 202 0.0 3.0 0.00 0.00 0.00 89 1015.6
20260508021553 54 215 3.0 4.0 0.00 0.00 0.00 87 1015.5
20260508020056 54 215 2.0 3.0 0.00 0.00 0.00 87 1015.4
20260508014551 55 217 1.0 3.0 0.00 0.00 0.00 87 1015.2
20260508013049 54 213 0.0 3.0 0.00 0.00 0.00 87 1015.5
20260508011549 55 212 1.0 4.0 0.00 0.00 0.00 86 1015.7
20260508010049 55 194 2.0 6.0 0.00 0.00 0.00 86 1015.9
20260508004547 55 186 3.0 6.0 0.00 0.00 0.00 86 1015.9
20260508003046 57 209 3.0 6.0 0.00 0.00 0.00 86 1015.6
20260508001547 57 191 0.0 3.0 0.00 0.00 0.00 85 1015.5
20260508000045 56 190 0.0 4.0 0.00 0.00 0.00 87 1015.7
20260507234544 57 208 2.0 6.0 0.00 0.00 0.00 86 1016.0
20260507233042 56 206 2.0 5.0 0.00 0.00 0.00 85 1016.1
20260507231547 56 217 2.0 5.0 0.00 0.00 0.00 86 1016.3
20260507230047 56 193 2.0 4.0 0.00 0.00 0.00 86 1016.3
20260507224541 56 165 1.0 4.0 0.00 0.00 0.00 87 1016.4
20260507223040 56 191 1.0 5.0 0.00 0.00 0.00 87 1016.5
20260507221539 56 194 3.0 5.0 0.00 0.00 0.00 87 1016.7
20260507220039 56 211 2.0 5.0 0.00 0.00 0.00 86 1016.7
20260507214557 56 217 3.0 6.0 0.00 0.00 0.00 86 1016.7
20260507213040 57 211 2.0 7.0 0.00 0.00 0.00 87 1016.7
20260507211538 57 212 3.0 6.0 0.00 0.00 0.00 87 1016.5
20260507210049 57 188 2.0 5.0 0.00 0.00 0.00 86 1016.6
20260507204537 57 200 2.0 5.0 0.00 0.00 0.00 87 1016.7
20260507203046 57 198 3.0 8.0 0.00 0.00 0.00 86 1016.6
20260507201542 57 208 2.0 6.0 0.00 0.00 0.00 85 1016.4
20260507200037 58 231 3.0 7.0 0.00 0.00 0.00 84 1016.3
20260507194559 58 175 3.0 7.0 0.00 0.00 0.00 85 1016.3
20260507193034 58 209 3.0 8.0 0.00 0.00 0.00 86 1016.2
20260507191532 59 205 3.0 6.0 0.00 0.00 0.00 86 1016.1
20260507190030 58 209 3.0 6.0 0.00 0.00 0.00 85 1016.1
20260507184530 58 221 1.0 4.0 0.00 0.00 0.00 86 1016.3
20260507183034 57 206 1.0 3.0 0.00 0.00 0.00 85 1016.4
20260507181526 57 213 1.0 4.0 0.00 0.00 0.00 86 1016.4
20260507180031 57 209 1.0 4.0 0.00 0.00 0.00 86 1016.5